Time,TemperatureF,DewpointF,PressureIn,WindDirection,WindDirectionDegrees,WindSpeedMPH,WindSpeedGustMPH,Humidity,HourlyPrecipIn,Conditions,Clouds,dailyrainin,SoftwareType,DateUTC
2013-08-13 00:06:00,70.2,68.0,29.93,SW,226,0.0,-999.0,92,-99.99,,,0.00,weatherlink.com 1.10,2013-08-13 04:06:00,
2013-08-13 00:20:00,70.0,68.0,29.93,SW,215,0.0,-999.0,92,-99.99,,,0.00,weatherlink.com 1.10,2013-08-13 04:20:00,
2013-08-13 00:35:00,69.8,68.0,29.92,SW,215,0.0,-999.0,93,-99.99,,,0.00,weatherlink.com 1.10,2013-08-13 04:35:00,
2013-08-13 00:50:00,69.7,68.0,29.93,SW,215,0.0,-999.0,93,-99.99,,,0.00,weatherlink.com 1.10,2013-08-13 04:50:00,
2013-08-13 01:05:00,69.7,68.0,29.93,SW,215,0.0,-999.0,93,-99.99,,,0.00,weatherlink.com 1.10,2013-08-13 05:05:00,
2013-08-13 01:20:00,69.4,68.0,29.92,SW,215,0.0,-999.0,94,-99.99,,,0.00,weatherlink.com 1.10,2013-08-13 05:20:00,
2013-08-13 01:35:00,69.5,68.0,29.92,SW,215,0.0,-999.0,94,-99.99,,,0.00,weatherlink.com 1.10,2013-08-13 05:35:00,
2013-08-13 01:50:00,69.4,68.0,29.93,SW,222,0.0,-999.0,95,-99.99,,,0.08,weatherlink.com 1.10,2013-08-13 05:50:00,
2013-08-13 02:05:00,69.4,68.0,29.92,SW,222,0.0,-999.0,95,-99.99,,,0.08,weatherlink.com 1.10,2013-08-13 06:05:00,
2013-08-13 02:20:00,69.3,68.0,29.92,SW,222,0.0,-999.0,95,-99.99,,,0.12,weatherlink.com 1.10,2013-08-13 06:20:00,
2013-08-13 02:35:00,69.2,68.0,29.91,SW,222,0.0,-999.0,95,-99.99,,,0.13,weatherlink.com 1.10,2013-08-13 06:35:00,
2013-08-13 02:50:00,69.2,68.0,29.91,SW,222,0.0,-999.0,95,-99.99,,,0.13,weatherlink.com 1.10,2013-08-13 06:50:00,
2013-08-13 03:05:00,69.2,68.0,29.91,SW,222,0.0,-999.0,95,-99.99,,,0.13,weatherlink.com 1.10,2013-08-13 07:05:00,
2013-08-13 03:20:00,69.3,68.0,29.92,SW,222,0.0,-999.0,95,-99.99,,,0.15,weatherlink.com 1.10,2013-08-13 07:20:00,
2013-08-13 03:35:00,69.3,68.0,29.92,SW,222,0.0,-999.0,96,-99.99,,,0.16,weatherlink.com 1.10,2013-08-13 07:35:00,
2013-08-13 03:50:00,69.2,68.0,29.90,SW,222,0.0,-999.0,96,-99.99,,,0.19,weatherlink.com 1.10,2013-08-13 07:50:00,
2013-08-13 04:05:00,69.2,68.0,29.90,SW,222,0.0,-999.0,96,-99.99,,,0.19,weatherlink.com 1.10,2013-08-13 08:05:00,
2013-08-13 04:20:00,69.1,68.0,29.90,SW,222,0.0,-999.0,95,-99.99,,,0.21,weatherlink.com 1.10,2013-08-13 08:20:00,
2013-08-13 04:35:00,69.2,68.0,29.89,SW,222,0.0,-999.0,96,-99.99,,,0.21,weatherlink.com 1.10,2013-08-13 08:35:00,
2013-08-13 04:50:00,69.2,68.0,29.89,SW,222,0.0,-999.0,96,-99.99,,,0.21,weatherlink.com 1.10,2013-08-13 08:50:00,
2013-08-13 05:05:00,69.4,68.0,29.90,SW,222,0.0,-999.0,96,-99.99,,,0.21,weatherlink.com 1.10,2013-08-13 09:05:00,
2013-08-13 05:20:00,70.0,69.0,29.90,SW,224,2.0,-999.0,96,-99.99,,,0.21,weatherlink.com 1.10,2013-08-13 09:20:00,
2013-08-13 05:36:00,70.0,69.0,29.90,SW,225,5.0,-999.0,96,-99.99,,,0.22,weatherlink.com 1.10,2013-08-13 09:36:00,
2013-08-13 05:50:00,70.1,69.0,29.91,West,265,5.0,-999.0,96,-99.99,,,0.25,weatherlink.com 1.10,2013-08-13 09:50:00,
2013-08-13 06:05:00,70.0,69.0,29.90,West,269,3.0,-999.0,96,-99.99,,,0.26,weatherlink.com 1.10,2013-08-13 10:05:00,
2013-08-13 06:20:00,69.9,69.0,29.90,West,266,4.0,-999.0,95,-99.99,,,0.26,weatherlink.com 1.10,2013-08-13 10:20:00,
2013-08-13 06:36:00,69.9,69.0,29.91,West,267,4.0,-999.0,95,-99.99,,,0.26,weatherlink.com 1.10,2013-08-13 10:36:00,
2013-08-13 06:50:00,69.8,68.0,29.90,West,267,0.0,-999.0,95,-99.99,,,0.26,weatherlink.com 1.10,2013-08-13 10:50:00,
2013-08-13 07:05:00,69.8,68.0,29.91,West,267,0.0,-999.0,95,-99.99,,,0.26,weatherlink.com 1.10,2013-08-13 11:05:00,
2013-08-13 07:20:00,69.9,69.0,29.91,West,267,1.0,-999.0,95,-99.99,,,0.26,weatherlink.com 1.10,2013-08-13 11:20:00,
2013-08-13 07:36:00,69.9,69.0,29.91,West,267,0.0,-999.0,95,-99.99,,,0.26,weatherlink.com 1.10,2013-08-13 11:36:00,
2013-08-13 07:50:00,70.1,69.0,29.92,West,267,1.0,-999.0,95,-99.99,,,0.26,weatherlink.com 1.10,2013-08-13 11:50:00,
2013-08-13 08:05:00,70.3,69.0,29.92,West,267,0.0,-999.0,95,-99.99,,,0.26,weatherlink.com 1.10,2013-08-13 12:05:00,
2013-08-13 08:20:00,70.5,69.0,29.92,West,267,0.0,-999.0,95,-99.99,,,0.26,weatherlink.com 1.10,2013-08-13 12:20:00,
2013-08-13 08:36:00,70.5,69.0,29.92,West,267,0.0,-999.0,95,-99.99,,,0.26,weatherlink.com 1.10,2013-08-13 12:36:00,
2013-08-13 08:50:00,70.8,69.0,29.92,West,267,0.0,-999.0,95,-99.99,,,0.26,weatherlink.com 1.10,2013-08-13 12:50:00,
2013-08-13 09:05:00,71.2,70.0,29.92,West,267,0.0,-999.0,95,-99.99,,,0.26,weatherlink.com 1.10,2013-08-13 13:05:00,
2013-08-13 09:20:00,71.6,70.0,29.92,West,267,0.0,-999.0,94,-99.99,,,0.26,weatherlink.com 1.10,2013-08-13 13:20:00,
2013-08-13 09:36:00,71.7,70.0,29.92,West,267,1.0,-999.0,94,-99.99,,,0.26,weatherlink.com 1.10,2013-08-13 13:36:00,
2013-08-13 09:50:00,72.1,70.0,29.93,West,267,4.0,-999.0,93,-99.99,,,0.26,weatherlink.com 1.10,2013-08-13 13:50:00,
2013-08-13 10:05:00,72.3,70.0,29.94,West,267,0.0,-999.0,93,-99.99,,,0.26,weatherlink.com 1.10,2013-08-13 14:05:00,
2013-08-13 10:20:00,72.3,70.0,29.94,West,267,3.0,-999.0,92,-99.99,,,0.26,weatherlink.com 1.10,2013-08-13 14:20:00,
2013-08-13 10:36:00,72.3,70.0,29.93,West,267,0.0,-999.0,92,-99.99,,,0.26,weatherlink.com 1.10,2013-08-13 14:36:00,
2013-08-13 10:50:00,74.5,72.0,29.94,West,267,2.0,-999.0,90,-99.99,,,0.26,weatherlink.com 1.10,2013-08-13 14:50:00,
2013-08-13 11:06:00,74.9,71.0,29.94,West,267,2.0,-999.0,86,-99.99,,,0.26,weatherlink.com 1.10,2013-08-13 15:06:00,
2013-08-13 11:21:00,74.8,70.0,29.95,WNW,284,3.0,-999.0,85,-99.99,,,0.26,weatherlink.com 1.10,2013-08-13 15:21:00,
2013-08-13 11:36:00,74.8,71.0,29.95,WNW,284,1.0,-999.0,88,-99.99,,,0.26,weatherlink.com 1.10,2013-08-13 15:36:00,
2013-08-13 11:50:00,74.8,71.0,29.95,West,275,5.0,-999.0,87,-99.99,,,0.26,weatherlink.com 1.10,2013-08-13 15:50:00,
2013-08-13 12:05:00,75.2,70.0,29.95,West,269,5.0,-999.0,84,-99.99,,,0.26,weatherlink.com 1.10,2013-08-13 16:05:00,
2013-08-13 12:20:00,76.0,72.0,29.95,West,275,7.0,-999.0,86,-99.99,,,0.26,weatherlink.com 1.10,2013-08-13 16:20:00,
2013-08-13 12:38:00,76.1,71.0,29.95,West,276,3.0,-999.0,84,-99.99,,,0.26,weatherlink.com 1.10,2013-08-13 16:38:00,
2013-08-13 12:51:00,76.3,72.0,29.95,West,277,2.0,-999.0,86,-99.99,,,0.26,weatherlink.com 1.10,2013-08-13 16:51:00,
2013-08-13 13:06:00,76.4,72.0,29.95,West,276,2.0,-999.0,85,-99.99,,,0.26,weatherlink.com 1.10,2013-08-13 17:06:00,
2013-08-13 13:37:00,77.4,71.0,29.94,WNW,295,2.0,-999.0,81,-99.99,,,0.26,weatherlink.com 1.10,2013-08-13 17:37:00,
2013-08-13 13:50:00,78.0,71.0,29.93,West,262,1.0,-999.0,79,-99.99,,,0.26,weatherlink.com 1.10,2013-08-13 17:50:00,
2013-08-13 14:05:00,78.6,72.0,29.92,WNW,283,2.0,-999.0,80,-99.99,,,0.26,weatherlink.com 1.10,2013-08-13 18:05:00,
2013-08-13 14:20:00,79.7,73.0,29.92,WNW,289,5.0,-999.0,79,-99.99,,,0.26,weatherlink.com 1.10,2013-08-13 18:20:00,
2013-08-13 14:35:00,79.9,71.0,29.92,West,277,7.0,-999.0,75,-99.99,,,0.26,weatherlink.com 1.10,2013-08-13 18:35:00,
2013-08-13 14:50:00,80.0,72.0,29.92,NW,325,6.0,-999.0,77,-99.99,,,0.26,weatherlink.com 1.10,2013-08-13 18:50:00,
2013-08-13 15:17:00,78.9,70.0,29.93,NW,307,13.0,-999.0,75,-99.99,,,0.27,weatherlink.com 1.10,2013-08-13 19:17:00,
2013-08-13 15:35:00,70.3,68.0,29.93,West,263,3.0,-999.0,92,-99.99,,,0.48,weatherlink.com 1.10,2013-08-13 19:35:00,
2013-08-13 15:50:00,71.2,69.0,29.93,West,268,3.0,-999.0,93,-99.99,,,0.49,weatherlink.com 1.10,2013-08-13 19:50:00,
2013-08-13 16:20:00,72.9,71.0,29.93,WSW,258,2.0,-999.0,93,-99.99,,,0.49,weatherlink.com 1.10,2013-08-13 20:20:00,
2013-08-13 16:50:00,76.0,73.0,29.92,NW,308,3.0,-999.0,89,-99.99,,,0.50,weatherlink.com 1.10,2013-08-13 20:50:00,
2013-08-13 17:17:00,75.8,72.0,29.93,NNE,32,2.0,-999.0,87,-99.99,,,0.50,weatherlink.com 1.10,2013-08-13 21:17:00,
2013-08-13 17:35:00,76.2,71.0,29.93,North,355,2.0,-999.0,84,-99.99,,,0.50,weatherlink.com 1.10,2013-08-13 21:35:00,
2013-08-13 17:50:00,76.0,71.0,29.93,North,355,4.0,-999.0,83,-99.99,,,0.50,weatherlink.com 1.10,2013-08-13 21:50:00,
2013-08-13 18:16:00,75.6,70.0,29.93,NW,319,3.0,-999.0,82,-99.99,,,0.50,weatherlink.com 1.10,2013-08-13 22:16:00,
2013-08-13 18:35:00,74.9,69.0,29.93,NW,317,1.0,-999.0,81,-99.99,,,0.50,weatherlink.com 1.10,2013-08-13 22:35:00,
2013-08-13 18:50:00,75.1,70.0,29.92,NW,317,0.0,-999.0,83,-99.99,,,0.50,weatherlink.com 1.10,2013-08-13 22:50:00,
2013-08-13 19:17:00,75.1,70.0,29.92,NW,311,0.0,-999.0,83,-99.99,,,0.50,weatherlink.com 1.10,2013-08-13 23:17:00,
2013-08-13 19:35:00,74.6,70.0,29.93,WSW,242,0.0,-999.0,86,-99.99,,,0.50,weatherlink.com 1.10,2013-08-13 23:35:00,
2013-08-13 19:50:00,74.0,70.0,29.94,WSW,242,0.0,-999.0,88,-99.99,,,0.50,weatherlink.com 1.10,2013-08-13 23:50:00,
2013-08-13 20:19:00,73.3,69.0,29.95,West,276,0.0,-999.0,87,-99.99,,,0.50,weatherlink.com 1.10,2013-08-14 00:19:00,
2013-08-13 20:36:00,72.5,68.0,29.95,North,9,0.0,-999.0,85,-99.99,,,0.50,weatherlink.com 1.10,2013-08-14 00:36:00,
2013-08-13 20:51:00,71.8,68.0,29.95,North,9,0.0,-999.0,86,-99.99,,,0.50,weatherlink.com 1.10,2013-08-14 00:51:00,
2013-08-13 21:21:00,70.0,67.0,29.96,North,9,0.0,-999.0,89,-99.99,,,0.50,weatherlink.com 1.10,2013-08-14 01:21:00,
2013-08-13 21:36:00,69.1,66.0,29.97,North,9,0.0,-999.0,90,-99.99,,,0.50,weatherlink.com 1.10,2013-08-14 01:36:00,
2013-08-13 21:57:00,68.8,66.0,29.97,North,9,0.0,-999.0,91,-99.99,,,0.50,weatherlink.com 1.10,2013-08-14 01:57:00,
2013-08-13 22:05:00,68.0,66.0,29.99,North,9,0.0,-999.0,92,-99.99,,,0.50,weatherlink.com 1.10,2013-08-14 02:05:00,
2013-08-13 22:20:00,67.5,65.0,29.99,North,9,0.0,-999.0,92,-99.99,,,0.50,weatherlink.com 1.10,2013-08-14 02:20:00,
2013-08-13 22:35:00,67.0,65.0,29.99,North,9,0.0,-999.0,93,-99.99,,,0.50,weatherlink.com 1.10,2013-08-14 02:35:00,
2013-08-13 22:58:00,66.8,65.0,30.00,North,9,0.0,-999.0,92,-99.99,,,0.50,weatherlink.com 1.10,2013-08-14 02:58:00,
2013-08-13 23:05:00,66.0,64.0,30.00,North,9,0.0,-999.0,93,-99.99,,,0.50,weatherlink.com 1.10,2013-08-14 03:05:00,
2013-08-13 23:21:00,65.6,64.0,30.01,North,9,0.0,-999.0,93,-99.99,,,0.50,weatherlink.com 1.10,2013-08-14 03:21:00,
2013-08-13 23:36:00,65.7,64.0,30.02,North,9,0.0,-999.0,93,-99.99,,,0.50,weatherlink.com 1.10,2013-08-14 03:36:00,
2013-08-13 23:56:00,65.7,63.0,30.02,North,9,0.0,-999.0,92,-99.99,,,0.50,weatherlink.com 1.10,2013-08-14 03:56:00,